Location: The Saddle
(36.8333°N, 80.3417°W)
Time: 00:13:11
(UTC-04:00)

A-11 Canister half - Pass Details

Date: 31 May 2024
Orbit: 1515 x 1684 km, 47.2° (Epoch: 09 September)

Event Time Altitude Azimuth Distance (km) Brightness Sun altitude
Rises 23:06:27 0° 207° (SSW) 4,880 11.4 -23.3°
Enters shadow 23:09:19 - 202° (SSW) 4,019 10.9 -23.6°
Exits shadow 23:15:50 35° 173° (S) 2,395 9.5 -24.3°
Maximum altitude 23:18:57 44° 134° (SE) 2,104 9.2 -24.6°
Drops below altitude 10° 23:27:48 10° 66° (ENE) 3,765 11.0 -25.5°
Sets 23:31:00 0° 60° (ENE) 4,729 11.6 -25.8°
